Regional Weather Roundup
Issued by NWS Albany, NY

Home | Current Version | Previous Version | Text Only | Print | Product List | Glossary On
Versions: 1 2 3 4 5 6 7 8 9 10 11 12 13 14 15 16 17 18 19 20 21 22 23 24 25 26 27
000
ASUS41 KALY 292010
RWRALY

NEW YORK STATE HOURLY WEATHER ROUNDUP
NATIONAL WEATHER SERVICE ALBANY NY
400 PM EDT FRI JUL 29 2016

NOTE: "FAIR" INDICATES FEW OR NO CLOUDS BELOW 12,000 FEET WITH NO
SIGNIFICANT WEATHER AND/OR NO OBSTRUCTIONS TO VISIBILITY.

NYZ032-033-038>043-046>054-057>066-NYZ062>081-082-084-292100-
EAST


CITY           SKY/WX    TMP DP  RH WIND       PRES   REMARKS
ALBANY         MOSUNNY   87  63  44 N10       29.85S
GLENS FALLS    SUNNY     85  55  35 NE9       29.86S
POUGHKEEPSIE   SUNNY     88  65  46 N7        29.82R HX  90
NEWBURGH       MOSUNNY   88  68  51 NE6       29.86R HX  91
MONTGOMERY     MOSUNNY   86  67  52 NE6       29.84S
WHITE PLAINS   MOSUNNY   80  70  71 S7        29.84S
ISLIP          MOSUNNY   82  67  60 N9        29.82S
NEW YORK CITY  MOSUNNY   83  68  60 NE8       29.83S
CENTRAL PARK   SUNNY     82  68  62 CALM      29.87S
$$

NYZ005>009-017-018-044>046-055-056-292100-
CENTRAL


CITY           SKY/WX    TMP DP  RH WIND       PRES   REMARKS
FULTON         SUNNY     87  57  35 NW13G20   29.93S
SYRACUSE       PTSUNNY   84  56  38 N12       29.90
ROME           SUNNY     86  57  37 N9        29.89S
ELMIRA         CLOUDY    85  58  39 N10       29.91S
BINGHAMTON     PTSUNNY   82  60  47 N13       29.94R
MONTICELLO     PTSUNNY   79  66  65 NW10      29.92R
$$

NYZ026>034-041>043-087-292100-
NORTH


CITY           SKY/WX    TMP DP  RH WIND       PRES   REMARKS
WATERTOWN      MOSUNNY   84  52  33 N14       29.93S
FORT DRUM      NOT AVBL
MASSENA        SUNNY     78  56  46 W7        29.96S
SARANAC LAKE   MOSUNNY   78  53  41 N8        29.96S
PLATTSBURGH    MOSUNNY   78  62  57 N13       29.92S
$$

NYZ001>004-010>016-019>021-085-292100-
WEST


CITY           SKY/WX    TMP DP  RH WIND       PRES   REMARKS
NIAGARA FALLS  PTSUNNY   83  62  49 NE8       29.95
BUFFALO        PTSUNNY   83  64  52 NE9G17    29.94F
DUNKIRK        SUNNY     81  69  67 N10       29.95S
JAMESTOWN      PTSUNNY   73  64  73 SW12      29.99S
WELLSVILLE     CLOUDY    80  61  52 N10G22    30.01R
ROCHESTER      CLOUDY    82  62  50 NE12      29.96F
PENN YAN       SUNNY     85  58  39 VRB7      29.95S
$$

             KEY
       WCI = WIND CHILL INDEX
       VSB = VISIBILITY
       HX  = HEAT INDEX
$$




USA.gov is the U.S. government's official web portal to all federal, state and local government web resources and services.